Overview Statistics Trail Chart Weather Telemetry Raw packets
 

This is the latest recevied weather packets stored in our database for station/object KN6WGU. If no packets are shown the sender has not sent any weather packets the latest 10 day(s).

<< 19 20 21 22 23 24 25 >>
Time Temp. Humidity Pressure Rain* Wind** Luminosity Snow
1788481643 21.11° C 99% 1007.8 hPa 0 mm - 0 W/m² -
1788481340 21.11° C 99% 1007.8 hPa 0 mm - 0 W/m² -
1788481034 21.11° C 99% 1007.6 hPa 0 mm - 0 W/m² -
1788480734 21.11° C 99% 1007.9 hPa 0 mm - 0 W/m² -
1788480429 21.11° C 99% 1007.4 hPa 0 mm - 0 W/m² -
1788480124 21.11° C 99% 1007.5 hPa 0 mm - 1 W/m² -
1788479818 21.11° C 99% 1007.8 hPa 0 mm - 1 W/m² -
1788479514 21.11° C 99% 1008.2 hPa 0 mm - 1 W/m² -
1788479208 21.67° C 99% 1008.2 hPa 1.78 mm - 2 W/m² -
1788478905 21.67° C 99% 1008.6 hPa 1.78 mm - 3 W/m² -
1788478601 21.67° C 98% 1008.7 hPa 0 mm - 3 W/m² -
1788478296 21.67° C 98% 1008.8 hPa 0 mm - 2 W/m² -
1788477990 21.67° C 98% 1008.8 hPa 0 mm - 3 W/m² -
1788477686 21.67° C 98% 1008.8 hPa 0 mm - 3 W/m² -
1788477380 21.67° C 98% 1009.2 hPa 0 mm - 3 W/m² -
1788477080 21.67° C 98% 1009.4 hPa 1.78 mm - 3 W/m² -
1788476776 21.67° C 98% 1010 hPa 1.78 mm - 3 W/m² -
1788476475 21.67° C 98% 1010.2 hPa 4.83 mm - 3 W/m² -
1788476173 21.67° C 97% 1010.3 hPa 4.32 mm - 2 W/m² -
1788475869 21.67° C 97% 1010.1 hPa 1.27 mm - 2 W/m² -
1788475564 21.67° C 97% 1010.3 hPa 1.78 mm - 2 W/m² -
1788475260 21.67° C 97% 1010.3 hPa 3.05 mm - 2 W/m² -
1788474987 21.67° C 97% 1010.5 hPa 6.1 mm - 2 W/m² -
1788474653 21.67° C 96% 1010.6 hPa 6.1 mm - 2 W/m² -
1788474348 21.67° C 96% 1010.5 hPa 3.05 mm - 2 W/m² -

* Rain latest hour (hover to see other rain measurements)
** Current wind speed in m/s (hover to see current wind gust speed)